Location: Quesnel
(52.9830°N, 122.4830°W)
Time: 21:28:12
(UTC-08:00)

ISS - All Passes

Search period start: 22 January 2018 00:00
Search period end: 01 February 2018 00:00
Orbit: 402 x 407 km, 51.6° (Epoch: 23 January)

Date Brightness Start Highest point End Pass type
(mag) Time Alt. Az. Time Alt. Az. Time Alt. Az.
22 Jan - 01:08:31 10° W 01:11:42 48° SSW 01:14:52 10° ESE night (unlit)
22 Jan - 02:45:34 10° WSW 02:47:39 16° SW 02:49:43 10° S night (unlit)
22 Jan - 21:04:06 10° SSW 21:06:57 27° SSE 21:09:48 10° E night (unlit)
22 Jan - 22:39:52 10° WSW 22:43:07 65° S 22:46:23 10° E night (unlit)
23 Jan - 00:16:15 10° W 00:19:29 59° SSW 00:22:43 10° ESE night (unlit)
23 Jan - 01:52:55 10° W 01:55:35 23° SSW 01:58:14 10° SSE night (unlit)
23 Jan - 20:12:25 10° SSW 20:14:51 19° SSE 20:17:16 10° E night (unlit)
23 Jan - 21:47:41 10° WSW 21:50:52 54° SSE 21:54:05 10° E night (unlit)
23 Jan - 23:23:58 10° W 23:27:14 68° S 23:30:30 10° ESE night (unlit)
24 Jan - 01:00:29 10° W 01:03:28 32° SSW 01:06:26 10° SE night (unlit)
24 Jan - 19:21:12 10° S 19:22:48 13° SE 19:24:23 10° ESE visible
24 Jan - 20:55:32 10° SW 20:58:39 42° SSE 21:01:47 10° E night (unlit)
24 Jan - 22:31:42 10° W 22:34:57 71° S 22:38:14 10° E night (unlit)
25 Jan - 00:08:08 10° W 00:11:17 43° SSW 00:14:25 10° SE night (unlit)
25 Jan - 01:45:26 10° WSW 01:47:09 14° SW 01:48:54 10° S night (unlit)
25 Jan - 20:03:32 10° SW 20:06:28 31° SSE 20:09:25 10° E visible
25 Jan - 21:39:25 10° WSW 21:42:40 67° S 21:45:57 10° E night (unlit)
25 Jan - 23:15:49 10° W 23:19:02 55° SSW 23:22:15 10° ESE night (unlit)
26 Jan - 00:52:35 10° W 00:55:05 20° SSW 00:57:34 10° SSE night (unlit)
26 Jan - 19:11:43 10° SSW 19:14:19 22° SSE 19:16:55 10° E visible
26 Jan - 20:47:10 10° WSW 20:50:24 58° SSE 20:53:37 10° E visible
26 Jan - 22:23:30 10° W 22:26:45 66° S 22:30:00 10° ESE night (unlit)
27 Jan - 00:00:04 10° W 00:02:56 29° SSW 00:05:49 10° SE night (unlit)
27 Jan - 18:20:14 10° S 18:22:12 15° SE 18:24:09 10° ESE visible
27 Jan - 19:54:58 10° WSW 19:58:07 46° SSE 20:01:17 10° E visible
27 Jan - 21:31:11 10° W 21:34:27 71° S 21:37:43 10° E night (unlit)
27 Jan - 23:07:38 10° W 23:10:44 39° SSW 23:13:49 10° SE night (unlit)
28 Jan - 00:45:18 10° WSW 00:46:34 12° SW 00:47:48 10° SSW night (unlit)
28 Jan - 19:02:52 10° SW 19:05:53 34° SSE 19:08:54 10° E visible
28 Jan - 20:38:52 10° W 20:42:07 69° S 20:45:23 10° E visible
28 Jan - 22:15:16 10° W 22:18:28 51° SSW 22:21:40 10° ESE night (unlit)
28 Jan - 23:52:10 10° W 23:54:28 18° SW 23:56:45 10° S night (unlit)
29 Jan - 18:10:56 10° SSW 18:13:40 25° SSE 18:16:25 10° E visible
29 Jan - 19:46:34 10° WSW 19:49:48 62° S 19:53:02 10° E visible
29 Jan - 21:22:55 10° W 21:26:10 62° S 21:29:24 10° ESE night (unlit)
29 Jan - 22:59:31 10° W 23:02:18 25° SSW 23:05:04 10° SSE night (unlit)
30 Jan - 17:19:16 10° S 17:21:30 17° SE 17:23:44 10° ESE daylight
30 Jan - 18:54:18 10° WSW 18:57:29 50° SSE 19:00:40 10° E visible
30 Jan - 20:30:33 10° W 20:33:49 70° S 20:37:05 10° E visible
30 Jan - 22:07:02 10° W 22:10:04 35° SSW 22:13:06 10° SE night (unlit)
31 Jan - 16:28:17 10° SSE 16:29:23 11° SE 16:30:29 10° ESE daylight
31 Jan - 18:02:07 10° SW 18:05:11 38° SSE 18:08:16 10° E visible
31 Jan - 19:38:11 10° W 19:41:27 70° S 19:44:43 10° E visible
31 Jan - 21:14:37 10° W 21:17:47 47° SSW 21:20:57 10° ESE visible
31 Jan - 22:51:41 10° WSW 22:53:43 15° SW 22:55:45 10° S night (unlit)
